TimeWET,TemperatureF,Dew PointF,Humidity,Sea Level PressureIn,VisibilityMPH,Wind Direction,Wind SpeedMPH,Gust SpeedMPH,PrecipitationIn,Events,Conditions,WindDirDegrees,DateUTC
12:00 AM,66.2,57.2,73,30.12,-9999.0,WSW,3.5,-,N/A,,Clear,240,2012-10-09 00:00:00
1:00 AM,66.2,57.2,73,30.12,-9999.0,SW,4.6,-,N/A,,Clear,230,2012-10-09 01:00:00
2:00 AM,64.4,55.4,73,30.09,-9999.0,SSW,4.6,-,N/A,,Clear,210,2012-10-09 02:00:00
3:00 AM,65,55,63,30.06,9,SW,3.5,,,,,220,2012-10-09 03:00:00
3:00 AM,64.4,55.4,73,30.09,-9999.0,SW,3.5,-,N/A,,Clear,220,2012-10-09 03:00:00
4:00 AM,64.4,55.4,73,30.09,-9999.0,Variable,1.2,-,N/A,,Clear,0,2012-10-09 04:00:00
5:00 AM,62.6,53.6,72,30.09,-9999.0,SSW,2.3,-,N/A,,Clear,200,2012-10-09 05:00:00
6:00 AM,64.4,53.6,68,30.09,-9999.0,NW,3.5,-,N/A,,Clear,310,2012-10-09 06:00:00
7:00 AM,64.4,55.4,73,30.09,-9999.0,Variable,2.3,-,N/A,,Clear,0,2012-10-09 07:00:00
8:00 AM,73.4,55.4,53,30.09,-9999.0,Calm,Calm,-,N/A,,Clear,0,2012-10-09 08:00:00
9:00 AM,79,56,34,30.05,9,North,5.8,,,,,0,2012-10-09 09:00:00
9:00 AM,78.8,55.4,44,30.12,-9999.0,North,5.8,-,N/A,,Clear,360,2012-10-09 09:00:00
10:00 AM,84.2,55.4,37,30.12,-9999.0,North,8.1,-,N/A,,Clear,360,2012-10-09 10:00:00
11:00 AM,87.8,55.4,33,30.12,-9999.0,North,10.4,-,N/A,,Clear,10,2012-10-09 11:00:00
12:00 PM,89,54,21,29.99,9,North,9.2,,,,,350,2012-10-09 12:00:00
12:00 PM,89.6,53.6,29,30.09,-9999.0,North,9.2,-,N/A,,Clear,350,2012-10-09 12:00:00
1:00 PM,91.4,55.4,29,30.06,-9999.0,North,9.2,-,N/A,,Clear,360,2012-10-09 13:00:00
3:00 PM,92,55,19,29.92,9,North,11.5,,,,,350,2012-10-09 15:00:00
4:00 PM,89.6,57.2,33,30.04,-9999.0,North,13.8,-,N/A,,Clear,350,2012-10-09 16:00:00
5:00 PM,86.0,57.2,37,30.04,-9999.0,North,12.7,-,N/A,,Clear,10,2012-10-09 17:00:00
7:00 PM,78.8,53.6,42,30.06,-9999.0,North,4.6,-,N/A,,Clear,360,2012-10-09 19:00:00
8:00 PM,78.8,53.6,42,30.06,-9999.0,North,4.6,-,N/A,,Clear,360,2012-10-09 20:00:00
9:00 PM,71,53,43,30.01,9,WSW,2.3,,,,,240,2012-10-09 21:00:00
9:00 PM,71.6,53.6,53,30.06,-9999.0,WSW,2.3,-,N/A,,Clear,240,2012-10-09 21:00:00
11:00 PM,66.2,50.0,56,30.06,-9999.0,SW,4.6,-,N/A,,Clear,230,2012-10-09 23:00:00